Wind_Speed
16 18 20 20 17 16 18 21 21 21 26 29 35 37 36 33 35 38 40 41 42 41 43 44 42 43 42 41 35 27 35 36 40 42 42 42 41 40 40 40 41 43 45 47
11 16 21 22 22 22 23 27 28 28 29 33 36 36 34 33 39 45 45 43 44 45 41 41 40 41 43 42 37 36 40 41 43 46 50 45 45 44 43 42 42 44 46 48
11 16 19 23 25 28 28 29 33 36 35 34 39 37 32 34 44 46 47 46 42 46 40 36 36 40 46 48 47 48 50 39 37 43 47 48 45 46 46 46 45 46 47 49
14 17 21 25 30 32 31 31 33 36 38 39 37 40 37 34 33 37 39 38 36 39 38 38 43 48 51 50 56 58 46 44 35 46 39 39 42 44 45 46 48 48 49 50
19 19 24 29 33 33 31 30 35 38 35 36 33 34 33 32 29 27 30 31 35 39 40 45 49 50 49 59 64 64 51 42 45 49 39 36 39 42 39 41 40 38 42 49
20 22 26 28 31 33 36 35 37 40 42 40 33 31 29 31 31 31 34 36 39 40 46 49 54 56 57 60 67 70 63 60 53 51 54 50 40 42 41 41 44 39 39 41
19 25 29 32 33 34 34 37 42 41 36 34 35 33 29 34 39 42 39 42 41 43 41 45 51 53 55 60 63 66 70 63 61 66 63 61 53 36 38 45 39 33 35 41
24 21 25 30 32 35 36 36 37 43 42 43 41 40 37 36 40 41 43 43 44 42 47 50 55 57 55 53 56 64 65 65 71 66 69 60 57 55 45 46 50 51 52 52
30 30 24 34 31 33 33 30 34 41 46 45 44 40 39 39 40 41 41 44 43 46 50 52 57 62 62 64 60 60 62 59 61 55 53 59 64 57 62 68 68 65 65 55
31 35 26 22 26 29 34 38 41 41 42 46 46 42 42 43 47 50 52 54 51 53 58 58 55 57 61 60 61 68 70 74 78 80 70 70 67 69 65 66 66 60 49 53
35 33 28 26 32 38 36 36 39 38 42 43 49 48 48 50 56 53 55 51 50 48 51 55 56 55 56 58 64 63 61 60 60 62 62 63 63 61 56 54 59 53 53 53
29 31 31 30 33 36 37 39 41 44 47 48 48 49 51 49 54 55 55 55 55 52 53 53 52 54 57 62 56 51 54 56 59 60 61 61 57 54 55 57 54 54 53 52
26 28 33 31 35 36 34 33 36 41 42 41 43 45 42 41 46 49 46 46 49 54 47 40 39 41 43 47 52 56 60 62 63 63 63 62 57 49 45 47 47 47 50 45
28 30 33 33 38 41 43 43 41 40 41 37 39 44 39 40 46 45 43 44 43 41 40 41 43 46 51 54 57 59 61 65 66 64 61 57 54 48 43 41 43 44 42 38
31 33 36 33 39 41 42 40 40 40 42 44 41 37 38 42 41 42 44 40 38 43 45 48 54 57 59 61 61 63 63 62 61 57 55 51 47 44 40 39 39 37 39 36
32 34 36 35 39 38 37 38 38 39 38 36 34 38 37 35 40 42 40 41 42 45 50 54 59 61 62 64 61 55 54 52 52 52 47 41 37 38 37 37 35 35 36 32
31 33 36 36 40 41 42 43 43 40 35 38 39 34 39 40 39 38 39 43 49 54 59 62 64 59 53 50 48 42 41 39 36 34 35 33 30 31 33 30 31 32 29 20
32 36 40 43 44 46 44 44 42 41 35 36 37 41 40 40 38 41 46 51 54 60 63 58 50 43 41 40 38 33 31 27 24 22 23 20 17 20 21 24 26 26 20 19
36 40 43 45 47 47 44 43 38 39 32 37 39 36 34 38 38 38 46 50 55 60 47 36 34 32 30 28 26 27 27 24 21 19 17 15 16 18 19 19 18 18 19 20
37 40 42 44 48 48 46 38 38 40 39 40 41 38 39 40 43 41 49 55 55 41 34 34 36 34 30 27 24 22 21 18 19 18 17 14 13 11 12 13 14 17 18 17
35 38 40 42 43 45 41 40 38 40 42 40 40 39 38 40 46 51 58 50 42 34 36 41 37 35 33 29 28 23 17 17 17 17 17 16 13 14 14 14 14 13 13 14
38 41 42 44 47 45 43 40 41 42 41 41 39 39 38 41 46 52 56 44 36 30 37 37 32 30 31 28 25 26 19 16 15 15 14 17 17 15 15 15 14 13 11 11
39 40 42 45 45 46 42 42 43 44 42 40 40 40 43 44 49 53 46 39 29 34 34 31 30 32 33 31 27 22 23 17 14 13 12 13 19 18 16 15 13 12 13 11
41 41 42 46 48 45 42 43 43 41 41 40 41 42 44 46 48 49 40 31 30 31 28 30 31 32 34 35 31 22 20 19 16 11 9 8 13 21 19 16 14 14 13 12
39 40 42 45 46 44 39 40 40 40 39 39 41 41 43 43 45 41 36 27 28 23 28 32 32 29 29 27 24 19 15 15 13 10 5 6 12 18 22 20 17 15 14 17
40 40 42 45 47 45 40 39 41 38 36 37 38 36 37 41 41 34 30 26 23 26 32 32 36 28 30 25 19 10 10 9 9 5 3 9 13 17 21 21 19 16 17 19
Wind_Direction
274 273 270 271 274 282 288 290 289 288 282 287 291 298 296 293 296 294 287 287 289 291 294 296 294 292 295 296 296 277 274 278 278 276 273 271 267 267 265 264 266 267 266 266
277 268 271 277 279 277 279 291 295 291 286 282 279 280 287 293 282 282 282 282 284 285 285 288 291 294 294 293 286 283 282 291 288 282 281 279 279 276 271 267 266 263 263 264
269 270 279 284 285 286 291 291 290 293 290 288 290 290 295 281 282 286 292 292 289 283 273 280 281 279 278 282 278 280 294 284 277 283 281 276 273 274 272 272 270 268 266 263
281 284 281 281 282 287 293 296 296 293 296 296 296 294 290 283 276 289 289 287 280 277 273 266 261 263 273 284 290 288 289 295 278 289 283 281 279 274 270 269 267 263 264 264
284 282 286 290 296 297 297 292 291 291 292 296 294 294 293 290 287 279 276 275 274 270 265 269 273 278 279 284 286 290 291 286 288 284 282 280 289 285 277 276 265 262 269 268
286 287 289 295 297 298 299 300 299 300 301 302 303 302 296 292 286 273 275 269 266 270 269 271 275 279 279 278 280 286 285 287 288 288 289 285 290 300 280 270 268 270 268 270
304 306 304 304 304 305 308 302 300 296 296 299 300 296 292 289 288 286 277 265 271 273 267 266 271 270 271 273 278 287 286 288 286 286 285 285 277 284 293 265 269 269 282 280
304 308 304 300 307 303 300 300 304 304 305 303 303 302 299 295 288 284 279 274 269 268 270 267 270 273 278 273 274 270 269 281 285 279 280 282 276 275 278 278 275 276 284 279
313 312 313 306 307 302 300 302 300 298 299 299 301 299 297 298 283 291 289 282 275 273 275 282 278 272 280 278 272 274 275 273 265 265 273 282 284 276 272 285 286 283 275 275
309 305 310 306 304 300 306 303 303 303 300 302 303 299 302 293 288 284 289 289 286 283 283 286 284 282 287 288 286 284 285 280 279 284 286 284 281 280 281 279 279 275 268 262
308 311 316 317 309 307 309 307 307 304 301 301 303 301 294 294 291 291 292 292 294 291 294 295 289 288 285 285 288 286 286 285 287 288 286 283 281 279 279 280 275 262 274 274
307 311 313 317 310 313 313 312 309 306 304 297 292 293 288 295 294 291 292 296 295 293 297 292 290 289 286 285 285 282 283 283 284 284 283 280 282 278 272 274 272 272 268 263
311 315 311 315 313 310 309 300 296 295 295 297 296 301 293 293 293 296 295 297 299 300 302 299 295 288 285 283 283 284 285 285 284 283 282 283 283 278 263 258 261 260 263 263
316 319 317 321 314 315 316 316 315 316 312 305 290 299 297 296 294 291 305 306 299 298 300 298 294 292 290 288 287 287 286 286 287 285 283 281 279 275 265 257 256 257 261 259
323 322 318 319 316 323 319 314 314 312 307 302 304 309 303 304 303 301 300 302 298 298 299 297 297 296 295 293 291 289 289 287 286 285 283 280 273 268 261 254 253 255 260 262
323 322 319 325 319 319 316 320 321 313 307 301 304 306 303 307 306 304 302 302 301 297 297 298 299 298 295 294 294 290 288 285 282 281 280 280 270 257 253 248 250 256 258 262
322 320 319 320 322 326 327 326 322 318 309 303 308 303 303 304 305 308 305 305 309 308 306 304 302 300 296 293 292 292 292 291 291 288 281 274 266 256 251 247 248 250 256 251
326 326 328 331 328 330 327 326 323 315 316 312 312 310 310 309 309 314 312 314 311 309 308 309 309 306 302 298 295 296 294 293 294 288 278 272 256 244 237 237 241 246 238 224
332 334 331 330 326 327 330 327 318 312 316 314 315 314 316 314 311 317 315 314 313 314 318 327 330 329 325 316 305 300 295 295 293 279 271 262 252 248 244 238 227 214 215 217
332 332 329 328 326 327 328 324 317 314 320 318 317 314 309 308 312 320 323 322 319 319 320 327 327 326 327 326 322 315 307 291 290 277 269 259 245 230 218 204 190 198 207 211
328 327 327 326 324 324 325 321 313 312 316 314 310 309 312 317 320 325 325 323 322 317 321 324 324 321 317 315 315 316 307 292 291 281 264 254 229 219 206 199 192 198 203 203
329 331 328 326 324 326 324 320 314 315 319 315 316 316 318 318 322 326 327 326 322 316 322 324 326 325 320 315 303 299 298 289 289 287 271 247 236 216 207 204 200 194 190 198
328 330 328 325 325 327 325 321 320 319 318 314 314 315 315 319 325 326 329 327 321 323 324 323 321 317 315 312 305 285 281 279 284 291 282 244 225 220 208 202 196 189 195 200
331 329 327 327 325 326 324 323 321 318 311 310 306 311 313 319 322 333 329 330 328 326 329 326 324 317 309 304 302 295 263 263 273 291 287 248 213 204 205 199 199 197 191 191
327 330 330 326 323 326 324 320 319 317 316 310 309 312 314 318 327 334 333 331 332 332 333 335 333 331 329 316 305 290 260 246 254 276 270 208 185 184 190 192 191 195 180 181
332 332 330 327 325 328 329 325 324 325 324 323 323 319 320 325 334 334 330 334 337 334 339 339 338 328 329 327 324 284 227 219 217 253 147 148 156 167 178 182 180 181 167 173
Height
5873 5872 5869 5870 5870 5869 5867 5865 5864 5863 5860 5859 5854 5853 5851 5849 5844 5838 5835 5832 5827 5824 5821 5818 5818 5817 5816 5815 5814 5814 5810 5810 5809 5808 5808 5809 5808 5806 5804 5803 5802 5800 5800 5801
5870 5867 5865 5865 5865 5864 5861 5860 5858 5857 5855 5851 5849 5848 5846 5841 5830 5825 5822 5821 5819 5817 5813 5811 5809 5807 5806 5805 5804 5802 5799 5801 5799 5795 5793 5795 5796 5794 5794 5793 5791 5789 5788 5787
5865 5864 5862 5860 5858 5856 5856 5854 5851 5848 5846 5844 5837 5839 5836 5826 5818 5816 5814 5812 5810 5805 5802 5801 5801 5799 5796 5795 5792 5790 5792 5795 5792 5784 5782 5783 5783 5783 5783 5782 5780 5776 5775 5775
5861 5860 5857 5855 5852 5850 5850 5847 5842 5838 5835 5831 5827 5827 5824 5817 5812 5811 5805 5802 5800 5797 5792 5789 5786 5783 5784 5782 5781 5780 5779 5780 5779 5774 5773 5769 5770 5769 5769 5770 5770 5766 5763 5762
5855 5854 5852 5849 5846 5844 5842 5838 5834 5829 5826 5823 5818 5817 5813 5806 5804 5802 5799 5795 5790 5788 5785 5781 5778 5776 5774 5769 5765 5762 5761 5763 5764 5760 5762 5760 5756 5753 5752 5755 5757 5753 5749 5746
5850 5848 5846 5844 5839 5835 5832 5828 5823 5819 5815 5813 5808 5805 5803 5799 5794 5790 5788 5787 5784 5779 5776 5771 5767 5764 5761 5757 5752 5747 5745 5745 5746 5746 5746 5748 5745 5739 5739 5741 5742 5742 5737 5732
5846 5843 5838 5834 5831 5827 5823 5817 5812 5810 5809 5806 5800 5797 5795 5790 5784 5779 5777 5774 5772 5769 5765 5759 5755 5752 5748 5743 5739 5737 5732 5730 5730 5728 5730 5730 5732 5730 5729 5727 5728 5727 5725 5722
5839 5839 5833 5827 5824 5819 5814 5810 5805 5796 5795 5793 5791 5786 5782 5780 5772 5765 5764 5765 5762 5760 5756 5751 5744 5738 5735 5731 5727 5723 5717 5714 5712 5710 5712 5714 5714 5716 5714 5718 5715 5713 5710 5709
5831 5829 5828 5818 5815 5810 5807 5805 5801 5793 5788 5782 5781 5776 5772 5767 5761 5757 5754 5753 5753 5751 5744 5741 5732 5723 5719 5715 5713 5708 5706 5701 5700 5696 5695 5696 5697 5696 5698 5697 5694 5695 5696 5696
5827 5822 5822 5817 5811 5804 5800 5796 5791 5786 5777 5772 5768 5763 5760 5754 5748 5745 5743 5741 5739 5734 5728 5722 5716 5709 5701 5698 5695 5693 5688 5685 5683 5678 5678 5677 5676 5677 5677 5677 5678 5677 5677 5678
5819 5816 5815 5810 5802 5796 5795 5788 5781 5775 5769 5762 5753 5752 5747 5741 5733 5732 5723 5723 5721 5718 5711 5705 5701 5697 5691 5685 5680 5678 5673 5668 5664 5661 5659 5657 5656 5656 5656 5656 5659 5662 5661 5661
5815 5810 5806 5804 5796 5789 5784 5778 5770 5764 5758 5753 5749 5745 5737 5733 5723 5718 5712 5708 5705 5702 5698 5691 5684 5680 5676 5671 5666 5662 5658 5653 5649 5645 5642 5640 5640 5638 5639 5641 5643 5643 5643 5643
5810 5805 5799 5798 5789 5785 5780 5773 5766 5759 5751 5743 5738 5733 5728 5722 5715 5708 5702 5698 5693 5687 5682 5676 5671 5666 5662 5657 5653 5647 5642 5636 5633 5629 5625 5623 5622 5622 5622 5623 5626 5625 5625 5629
5803 5798 5791 5789 5780 5774 5766 5758 5752 5746 5739 5733 5728 5720 5716 5711 5705 5700 5693 5689 5683 5677 5671 5665 5661 5655 5649 5643 5637 5631 5626 5619 5614 5610 5607 5606 5605 5605 5606 5608 5610 5612 5615 5617
5795 5791 5784 5781 5771 5765 5757 5751 5745 5737 5730 5721 5716 5711 5705 5700 5695 5690 5685 5678 5673 5667 5660 5653 5646 5639 5633 5625 5618 5612 5606 5600 5595 5591 5589 5589 5588 5589 5592 5595 5598 5602 5604 5606
5789 5783 5776 5773 5765 5760 5752 5744 5737 5728 5720 5713 5708 5704 5697 5692 5686 5681 5675 5668 5664 5657 5650 5641 5633 5624 5615 5606 5598 5593 5587 5583 5579 5576 5574 5573 5573 5575 5579 5583 5588 5592 5593 5596
5783 5777 5771 5766 5757 5750 5741 5734 5727 5720 5713 5704 5700 5695 5689 5685 5678 5672 5665 5659 5651 5643 5634 5624 5615 5605 5596 5588 5581 5578 5573 5570 5566 5562 5560 5560 5561 5564 5569 5573 5578 5582 5584 5588
5777 5770 5761 5753 5745 5739 5733 5726 5717 5709 5705 5697 5692 5686 5679 5672 5670 5663 5655 5645 5637 5626 5616 5606 5596 5588 5580 5574 5570 5567 5563 5561 5558 5555 5553 5553 5554 5557 5561 5565 5569 5572 5576 5582
5768 5759 5752 5745 5738 5732 5725 5717 5710 5701 5701 5691 5684 5679 5672 5664 5660 5658 5646 5637 5625 5612 5602 5593 5585 5578 5572 5566 5562 5559 5555 5553 5552 5550 5548 5548 5549 5551 5555 5559 5562 5567 5572 5577
5761 5754 5747 5739 5728 5721 5716 5709 5699 5692 5689 5682 5674 5669 5662 5656 5648 5645 5636 5624 5612 5602 5594 5588 5581 5574 5568 5562 5557 5553 5549 5547 5546 5545 5545 5545 5546 5548 5551 5555 5560 5565 5569 5574
5758 5750 5742 5734 5725 5718 5710 5702 5694 5686 5683 5676 5667 5660 5653 5646 5638 5629 5621 5612 5602 5593 5588 5582 5574 5567 5561 5558 5553 5549 5546 5543 5542 5541 5541 5542 5543 5546 5550 5553 5558 5563 5568 5572
5751 5743 5736 5727 5718 5710 5701 5694 5686 5679 5673 5664 5659 5650 5645 5639 5632 5623 5612 5601 5594 5590 5584 5576 5569 5562 5555 5551 5548 5545 5543 5539 5538 5537 5537 5538 5540 5544 5548 5552 5557 5563 5567 5571
5745 5738 5730 5721 5712 5703 5693 5685 5678 5670 5663 5656 5650 5644 5637 5631 5624 5615 5604 5597 5589 5584 5577 5569 5562 5556 5548 5543 5540 5538 5537 5536 5534 5533 5533 5533 5536 5542 5546 5551 5557 5562 5566 5569
5738 5731 5724 5714 5704 5697 5688 5680 5671 5664 5656 5650 5643 5638 5631 5623 5616 5608 5598 5591 5586 5578 5571 5563 5556 5548 5542 5535 5531 5530 5529 5530 5531 5531 5530 5530 5533 5538 5544 5550 5554 5560 5565 5569
5733 5725 5716 5708 5699 5692 5683 5675 5668 5659 5651 5643 5637 5631 5624 5616 5609 5600 5593 5587 5581 5574 5567 5559 5551 5543 5535 5528 5523 5523 5522 5524 5527 5528 5528 5528 5531 5536 5541 5547 5553 5558 5565 5569
5725 5719 5711 5702 5693 5685 5677 5668 5659 5652 5644 5636 5629 5624 5618 5608 5601 5595 5589 5584 5577 5571 5563 5555 5545 5535 5527 5521 5517 5516 5518 5521 5524 5526 5528 5529 5532 5536 5541 5547 5553 5557 5564 5569